TimeEDT,TemperatureF,Dew PointF,Humidity,Sea Level PressureIn,VisibilityMPH,Wind Direction,Wind SpeedMPH,Gust SpeedMPH,PrecipitationIn,Events,Conditions,WindDirDegrees,DateUTC
12:15 AM,13.1,6.4,75,30.04,10.0,NW,5.8,-,N/A,,Clear,320,2014-03-13 04:15:00
12:34 AM,11.1,4.1,73,30.05,10.0,NW,3.5,-,N/A,,Clear,310,2014-03-13 04:34:00
12:55 AM,11.5,5.9,78,30.05,10.0,NW,5.8,-,N/A,,Clear,320,2014-03-13 04:55:00
1:15 AM,12.2,4.1,70,30.05,10.0,NNW,5.8,-,N/A,,Clear,330,2014-03-13 05:15:00
1:35 AM,11.7,3.7,71,30.05,10.0,NNW,5.8,-,N/A,,Clear,330,2014-03-13 05:35:00
1:55 AM,11.3,3.2,70,30.05,10.0,NNW,4.6,-,N/A,,Clear,330,2014-03-13 05:55:00
2:14 AM,10.8,3.0,71,30.06,10.0,NW,3.5,-,N/A,,Clear,320,2014-03-13 06:14:00
2:35 AM,9.5,2.1,72,30.06,10.0,NNW,4.6,-,N/A,,Clear,330,2014-03-13 06:35:00
2:55 AM,9.7,2.1,71,30.06,10.0,NNW,4.6,-,N/A,,Clear,330,2014-03-13 06:55:00
3:15 AM,9.3,2.1,73,30.07,10.0,NW,3.5,-,N/A,,Clear,320,2014-03-13 07:15:00
3:35 AM,9.0,1.9,73,30.07,10.0,Calm,Calm,-,N/A,,Clear,0,2014-03-13 07:35:00
3:55 AM,7.3,2.1,79,30.07,10.0,Calm,Calm,-,N/A,,Clear,0,2014-03-13 07:55:00
4:14 AM,5.0,0.3,81,30.07,10.0,Calm,Calm,-,N/A,,Clear,0,2014-03-13 08:14:00
4:35 AM,4.8,0.9,84,30.07,10.0,Calm,Calm,-,N/A,,Clear,0,2014-03-13 08:35:00
4:55 AM,4.1,0.1,84,30.07,10.0,Calm,Calm,-,N/A,,Clear,0,2014-03-13 08:55:00
5:15 AM,5.0,1.2,84,30.07,10.0,WNW,3.5,-,N/A,,Clear,290,2014-03-13 09:15:00
5:35 AM,4.3,-0.0,82,30.07,10.0,Calm,Calm,-,N/A,,Clear,0,2014-03-13 09:35:00
5:55 AM,2.8,-1.3,83,30.07,10.0,Calm,Calm,-,N/A,,Clear,0,2014-03-13 09:55:00
6:15 AM,2.5,-1.8,82,30.08,2.0,Calm,Calm,-,N/A,,Clear,0,2014-03-13 10:15:00
6:35 AM,2.7,-1.8,81,30.10,7.0,WNW,3.5,-,N/A,,Clear,290,2014-03-13 10:35:00
6:54 AM,3.0,-1.3,82,30.11,10.0,Calm,Calm,-,N/A,,Clear,0,2014-03-13 10:54:00
7:15 AM,3.6,-0.9,82,30.11,10.0,Calm,Calm,-,N/A,,Clear,0,2014-03-13 11:15:00
7:35 AM,2.5,-1.8,82,30.12,10.0,Calm,Calm,-,N/A,,Clear,0,2014-03-13 11:35:00
7:54 AM,1.2,-3.5,81,30.12,10.0,Calm,Calm,-,N/A,,Clear,0,2014-03-13 11:54:00
8:15 AM,1.9,-2.6,81,30.13,10.0,Calm,Calm,-,N/A,,Clear,0,2014-03-13 12:15:00
8:35 AM,1.6,-3.1,81,30.14,10.0,Calm,Calm,-,N/A,,Clear,0,2014-03-13 12:35:00
8:54 AM,3.7,-0.8,82,30.14,0.8,Calm,Calm,-,N/A,,Haze,0,2014-03-13 12:54:00
9:15 AM,5.7,1.6,83,30.15,10.0,Calm,Calm,-,N/A,,Clear,0,2014-03-13 13:15:00
9:35 AM,7.3,3.2,83,30.14,10.0,Calm,Calm,-,N/A,,Clear,0,2014-03-13 13:35:00
9:55 AM,9.0,5.2,85,30.15,10.0,Calm,Calm,-,N/A,,Clear,0,2014-03-13 13:55:00
10:15 AM,10.0,5.9,83,30.14,10.0,Calm,Calm,-,N/A,,Clear,0,2014-03-13 14:15:00
10:35 AM,11.3,7.7,85,30.14,10.0,Calm,Calm,-,N/A,,Clear,0,2014-03-13 14:35:00
10:55 AM,12.6,7.2,79,30.14,10.0,ESE,3.5,-,N/A,,Clear,120,2014-03-13 14:55:00
11:15 AM,15.6,5.5,64,30.15,10.0,SSW,3.5,-,N/A,,Clear,210,2014-03-13 15:15:00
11:35 AM,16.3,4.3,59,30.15,10.0,South,3.5,-,N/A,,Clear,190,2014-03-13 15:35:00
11:55 AM,17.6,4.8,57,30.15,10.0,South,5.8,-,N/A,,Clear,190,2014-03-13 15:55:00
12:15 PM,19.0,5.2,55,30.15,10.0,South,5.8,-,N/A,,Scattered Clouds,180,2014-03-13 16:15:00
12:34 PM,20.1,5.5,53,30.14,10.0,South,6.9,-,N/A,,Mostly Cloudy,190,2014-03-13 16:34:00
12:55 PM,21.2,6.6,53,30.14,10.0,South,6.9,-,N/A,,Overcast,180,2014-03-13 16:55:00
1:15 PM,22.6,7.3,52,30.12,10.0,South,8.1,-,N/A,,Mostly Cloudy,190,2014-03-13 17:15:00
1:34 PM,23.5,10.2,57,30.11,10.0,South,11.5,-,N/A,,Mostly Cloudy,180,2014-03-13 17:34:00
1:55 PM,24.4,12.0,59,30.11,10.0,South,11.5,-,N/A,,Overcast,190,2014-03-13 17:55:00
2:15 PM,24.8,11.5,57,30.10,10.0,South,13.8,-,N/A,,Overcast,170,2014-03-13 18:15:00
2:29 PM,24.8,12.2,59,30.10,10.0,South,13.8,-,N/A,,Overcast,190,2014-03-13 18:29:00
2:53 PM,24.8,12.6,60,30.08,10.0,South,13.8,-,N/A,,Overcast,180,2014-03-13 18:53:00
3:15 PM,24.8,12.4,59,30.07,10.0,SSW,12.7,-,N/A,,Overcast,200,2014-03-13 19:15:00
3:35 PM,25.7,13.5,60,30.06,10.0,SSW,12.7,17.3,N/A,,Overcast,200,2014-03-13 19:35:00
3:38 PM,25.7,13.3,59,30.06,10.0,SSW,15.0,-,N/A,,Overcast,200,2014-03-13 19:38:00
4:18 PM,26.6,14.0,59,30.04,10.0,South,12.7,-,N/A,,Overcast,190,2014-03-13 20:18:00
4:37 PM,26.6,14.0,59,30.03,10.0,SSW,15.0,-,N/A,,Overcast,200,2014-03-13 20:37:00
4:57 PM,26.6,15.8,64,30.03,10.0,SSW,16.1,-,N/A,,Overcast,210,2014-03-13 20:57:00
4:58 PM,26.4,15.6,64,30.03,10.0,SSW,15.0,-,N/A,,Overcast,210,2014-03-13 20:58:00
5:15 PM,26.6,15.8,64,30.03,10.0,SSW,12.7,19.6,N/A,,Overcast,200,2014-03-13 21:15:00
5:34 PM,26.6,16.5,66,30.01,10.0,South,13.8,17.3,N/A,,Overcast,190,2014-03-13 21:34:00
5:55 PM,26.6,17.1,67,30.00,10.0,South,13.8,19.6,N/A,,Overcast,190,2014-03-13 21:55:00
6:15 PM,27.1,17.4,67,29.99,10.0,South,12.7,-,N/A,,Overcast,190,2014-03-13 22:15:00
6:35 PM,27.3,17.6,67,30.00,10.0,South,11.5,-,N/A,,Overcast,190,2014-03-13 22:35:00
6:55 PM,27.5,17.8,67,29.99,10.0,South,11.5,-,N/A,,Overcast,190,2014-03-13 22:55:00
7:15 PM,27.3,18.0,68,29.98,10.0,South,11.5,-,N/A,,Overcast,190,2014-03-13 23:15:00
7:35 PM,27.5,17.6,66,29.97,10.0,South,11.5,-,N/A,,Overcast,190,2014-03-13 23:35:00
7:55 PM,26.6,17.6,69,29.97,10.0,South,10.4,-,N/A,,Scattered Clouds,190,2014-03-13 23:55:00
8:15 PM,26.4,17.6,69,29.97,10.0,SSW,8.1,-,N/A,,Clear,200,2014-03-14 00:15:00
8:35 PM,26.1,17.6,70,29.97,10.0,SSW,6.9,-,N/A,,Clear,200,2014-03-14 00:35:00
8:55 PM,25.5,17.8,72,29.97,10.0,SSW,4.6,-,N/A,,Clear,200,2014-03-14 00:55:00
9:14 PM,25.0,18.1,75,29.96,10.0,South,6.9,-,N/A,,Clear,170,2014-03-14 01:14:00
9:35 PM,25.3,18.5,75,29.96,10.0,South,6.9,-,N/A,,Clear,180,2014-03-14 01:35:00
9:55 PM,25.2,18.7,76,29.95,10.0,South,5.8,-,N/A,,Clear,180,2014-03-14 01:55:00
10:14 PM,25.7,19.2,76,29.95,10.0,South,6.9,-,N/A,,Clear,180,2014-03-14 02:14:00
10:35 PM,24.8,19.0,79,29.94,10.0,South,5.8,-,N/A,,Clear,180,2014-03-14 02:35:00
10:54 PM,25.2,19.2,78,29.94,10.0,South,6.9,-,N/A,,Clear,180,2014-03-14 02:54:00
11:15 PM,25.7,19.9,79,29.93,10.0,South,6.9,-,N/A,,Clear,190,2014-03-14 03:15:00
11:35 PM,26.2,20.1,78,29.93,10.0,South,6.9,-,N/A,,Clear,190,2014-03-14 03:35:00
11:54 PM,26.2,20.3,78,29.92,10.0,South,6.9,-,N/A,,Clear,190,2014-03-14 03:54:00